Find OneWeb SL0630

NORAD ID: 56072 Int'l Des: 2023-043 Owner: ONEWEBN Country: UK Constellation: oneweb operational
LEOCIRCULARPOLARONEWEB_TYPE

实时位置

正在加载3D地球...

关于 OneWeb SL0630

正在加载描述...

即将过境

Passes for default location (London). Set your location on the main map for personalized predictions.

高度历史

Loading altitude history...

两行轨道根数

1 56072U 23043AC 26106.18752827 -.00000052 00000-0 -17327-3 0 9999
2 56072 87.8935 271.5651 0001997 91.1415 268.9944 13.15547154148276
Epoch: Apr 16, 2026 • Age: 8 hours

当前状态

高度 1204.5 km
速度 7.25 km/s
星下点 1.25°N, 56.17°E
发射日期 Mar 26, 2023
运行时间 3 years
类型 internet

技术详情

分类 Payload
质量 148.00 kg
干质量 140.00 kg
总质量 148.00 kg
长度 1.30 m
直径 1.00 m
跨度 5.00 m
形状 Trapezoid+2 pan
制造商 ONEWUS
平台类型 ARROW
阶段状态 In Orbit
所有者/国家 ONEWEBN/UK

Most Searched